Regional Weather Roundup
Issued by NWS Upton, NY

Current Version | Previous Version | Graphics & Text | Print | Product List | Glossary Off
Versions: 1 2 3 4 5 6 7 8 9 10 11 12 13 14 15 16 17 18 19 20 21 22 23 24 25 26 27 28 29 30 31 32 33 34 35 36 37 38 39 40 41 42 43 44 45 46 47 48 49 50

000
ASUS41 KOKX 172307
RWROKX

REGIONAL WEATHER ROUNDUP
NATIONAL WEATHER SERVICE NEW YORK NY
700 PM EDT FRI APR 17 2015

NOTE: "FAIR" INDICATES FEW OR NO CLOUDS BELOW 12,000 FEET WITH NO
SIGNIFICANT WEATHER AND/OR OBSTRUCTIONS TO VISIBILITY.

NYZ071-072-176-178-NJZ106-104-180000-
NEW YORK CITY METRO AREA


CITY           SKY/WX    TMP DP  RH WIND       PRES   REMARKS
CENTRAL PARK   MOCLDY    70  52  52 VRB3      29.93R
LAGUARDIA APRT MOCLDY    71  52  50 SW9       29.90R
KENNEDY INTL   PTCLDY    62  52  69 S12       29.92R
NEWARK/LIBERTY MOCLDY    71  54  54 W13       29.90R
BRNX BOT. GARD   N/A     70  52  52 SW9       29.91S
TETERBORO      CLOUDY    71  53  52 W9        29.89R
$$

NYZ177-179-078>081-180000-
LONG ISLAND NEW YORK

CITY           SKY/WX    TMP DP  RH WIND       PRES   REMARKS
FARMINGDALE    PTCLDY    63  54  72 S8        29.91S
ISLIP          MOCLDY    59  52  77 SW5       29.91R
SHIRLEY        PTCLDY    59  53  80 SW6       29.93R
WESTHAMPTON    CLEAR     55  50  83 S5        29.94R
MONTAUK POINT    N/A     57  51  80 SW6       29.93R
$$

NYZ052-065-067-180000-
HUDSON VALLEY

CITY           SKY/WX    TMP DP  RH WIND       PRES   REMARKS
WHITE PLAINS   MOCLDY    67  53  61 NW6       29.90R
NEWBURGH       PTCLDY    66  55  68 W14       29.93R
MONTGOMERY     MOCLDY    66  30  26 NW5       29.91S
POUGHKEEPSIE   CLOUDY    68  51  54 W8        29.91R
ALBANY         PTCLDY    61  46  57 W16G25    29.92S
$$

NJZ001-105-106-008-010-013-015-019>022-104-180000-
NEW JERSEY

CITY           SKY/WX    TMP DP  RH WIND       PRES   REMARKS
NEWARK/LIBERTY MOCLDY    71  54  54 W13       29.90R
TETERBORO      CLOUDY    71  53  52 W9        29.89R
CALDWELL       CLOUDY    71  52  50 VRB7      29.91R
MORRISTOWN     PTCLDY    70  54  56 W7G15     29.91S
SOMERVILLE     MOCLDY    71  53  52 W7        29.90S
SUSSEX         MOCLDY    70  51  51 NW5       29.92S
ANDOVER          N/A     69  51  52 VRB7      29.92R
TRENTON        CLOUDY    70  54  56 NW3       29.92S
MILLVILLE      CLEAR     71  58  63 SW3       29.93S
ATLANTIC CITY  MOCLDY    71  58  63 S7        29.94R
WRIGHTSTOWN    PTCLDY    70  57  63 W5        29.89S
TOMS RIVER     MOCLDY    70  57  64 CALM      29.91F
BELMAR         PTCLDY    70  54  56 W6        29.93R
$$

PAZ047>061-062-071-180000-
EASTERN PENNSYLVANIA

CITY           SKY/WX    TMP DP  RH WIND       PRES   REMARKS
PHILADELPHIA   MOCLDY    73  58  59 SW9       29.93S
ALLENTOWN      MOCLDY    69  54  58 W5        29.93S
SCRANTON       MOCLDY    68  50  52 SW7       29.93F
$$

CTZ002-004>006-009-010-012-RIZ004-006-007-MAZ004-011-015-180000-
SOUTHERN NEW ENGLAND
 IN CT

CITY           SKY/WX    TMP DP  RH WIND       PRES   REMARKS
BRADLEY INTL   MOCLDY    65  51  60 NW10      29.89S
HARTFORD       CLOUDY    66  52  60 VRB7      29.90R
DANBURY        CLOUDY    65  52  62 W6        29.92R
WTRBRY/OXFORD  MOCLDY    64  52  63 NW6       29.92R
BRIDGEPORT     CLOUDY    61  53  75 S5        29.91R
MERIDEN        CLOUDY    67  53  61 SW5       29.90R
NEW HAVEN      MOCLDY    61  52  72 CALM      29.91R
CHESTER        MOCLDY    63  54  72 SW6       29.91S
GROTON         CLEAR     52  49  89 SW5       29.91R
WILLIMANTIC    CLOUDY    64  53  67 W5        29.90R

 IN RI

CITY           SKY/WX    TMP DP  RH WIND       PRES   REMARKS
PROVIDENCE     MOCLDY    63  54  72 W6        29.89R
BLOCK ISLAND   CLOUDY    50  46  87 W16       29.91S
WESTERLY       MOCLDY    55  52  89 SW5       29.92R

 IN MA

CITY           SKY/WX    TMP DP  RH WIND       PRES   REMARKS
BOSTON         PTCLDY    64  49  57 W14G20    29.86S
WORCESTER      PTCLDY    59  48  67 W10       29.89R
WESTFIELD      PTCLDY    64  49  57 W14       29.89S
PROVINCETOWN   PTCLDY    48  46  93 SW9       29.86F
NANTUCKET      FOG       47  45  93 W15       29.90F VSB 1/4
$$

ANZ330-335-338-340-345-350-353-355-180000-
COASTAL MARINE OBSERVATIONS


STATION/POSITION TIME  SKY/WX   TEMP    WIND        PRES    VSBY  WAVE
                                AIR SEA DIR/SP/G                  HT/PER
                 (UTC)          (F)     (DEG/KT/KT) (MB)    (MI)  (FT/S)
NY HARB ENTRANCE 2150            51 48  190/  6/  8 1012.8          3/ 8
4S FIRE IS       2203               44                N/A           4/ 9
20S FIRE ISLAND  2150               44              1014.1          3/ 9
23SW MTP         2250                                 N/A           4/10
HUDSON CANYON    NOT AVBL
EXECUTION ROCKS  NOT AVBL
WESTERN LI SOUND NOT AVBL
CENTRAL LI SOUND NOT AVBL
EASTERN LI SOUND 2200            50     230/  6/  8   N/A
ROBBINS REEF     2200            70     260/ 13/ 16 1011.3
$$


>>>>>>>>>>>>>>>>>>>>>>>>>>>> KEY <<<<<<<<<<<<<<<<<<<<<<<<<<<
>                                                          <
>     SKY/WX - SKY CONDITION/PRESENT WEATHER               <
>     TMP    - TEMPERATURE IN FAHRENHEIT                   <
>     DP     - DEWPOINT IN FAHRENHEIT                      <
>     RH     - RELATIVE HUMIDITY IN PERCENT                <
>     WIND   - DIRECTION AND SPEED IN MPH                  <
>     PRES   - MEAN SEA LEVEL PRESSURE IN INCHES OF HG     <
>     WCI    - WIND CHILL INDEX                            <
>     VSB    - VISIBILITY IN MILES                         <
>     HX     - HEAT INDEX                                  <
>     TC     - TEMPERATURE IN CELSIUS                      <
>     VRB    - VARIABLE WIND DIRECTION                     <
>                                                          <
>>>>>>>>>>>>>>>>>>>>>>>>>>>> KEY <<<<<<<<<<<<<<<<<<<<<<<<<<<




USA.gov is the U.S. government's official web portal to all federal, state and local government web resources and services.